Regional Weather Roundup
Issued by NWS Little Rock, AR

Home | Current Version | Previous Version | Text Only | Print | Product List | Glossary Off
Versions: 1 2 3 4 5 6 7 8 9 10 11 12 13 14 15 16 17 18 19 20 21 22 23 24 25 26 27 28 29 30 31 32 33 34 35 36 37 38 39 40 41 42 43 44 45 46 47 48 49 50

263
ASUS44 KLZK 190612
RWRLZK

WEATHER ROUNDUP FOR ARKANSAS
NATIONAL WEATHER SERVICE LITTLE ROCK AR
100 AM CDT THU OCT 19 2017

NOTE: "FAIR" INDICATES FEW OR NO CLOUDS BELOW 12,000 FEET WITH NO
SIGNIFICANT WEATHER AND/OR OBSTRUCTIONS TO VISIBILITY.

ARZ001-003-010-029-190700-
NORTHWEST ARKANSAS

CITY           SKY/WX    TMP DP  RH WIND       PRES   REMARKS
FAYETTEVILLE   CLEAR     59  49  69 S7        30.12S
6HR MIN TEMP:  46; 6HR MAX TEMP:  60;

FORT SMITH     CLOUDY    56  51  84 NE6       30.12F
6HR MIN TEMP:  54; 6HR MAX TEMP:  71;

HARRISON       CLEAR     62  49  62 S9        30.13S
6HR MIN TEMP:  57; 6HR MAX TEMP:  67;

BENTONVILLE    CLEAR     56  46  69 S6        30.13F
6HR MIN TEMP:  54; 6HR MAX TEMP:  64;

ROGERS         CLEAR     55  47  74 CALM      30.12F
6HR MIN TEMP:  54; 6HR MAX TEMP:  66;

SILOAM SPGS    CLEAR     54  46  74 CALM      30.12S
6HR MIN TEMP:  51; 6HR MAX TEMP:  64;

HIGHFILL       CLEAR     55  47  74 S6        30.12S
6HR MIN TEMP:  50; 6HR MAX TEMP:  63;

$$

ARZ004-005-016-190700-
NORTH CENTRAL ARKANSAS

CITY           SKY/WX    TMP DP  RH WIND       PRES   REMARKS
BATESVILLE     CLEAR     61  48  62 VRB6      30.16S
6HR MIN TEMP:  61; 6HR MAX TEMP:  67;

FLIPPIN        CLEAR     54  49  83 S5        30.13F
6HR MIN TEMP:  52; 6HR MAX TEMP:  69;

MTN HOME       CLEAR     56  49  77 S5        30.12F
6HR MIN TEMP:  54; 6HR MAX TEMP:  66;

$$

ARZ040-041-190700-
WEST CENTRAL ARKANSAS

CITY           SKY/WX    TMP DP  RH WIND       PRES   REMARKS
MENA           PTCLDY    50  50 100 CALM      30.17S
$$

ARZ009-017-025-026-028-190700-
NORTHEAST ARKANSAS

CITY           SKY/WX    TMP DP  RH WIND       PRES   REMARKS
CORNING        FAIR      54  50  87 SE5       30.16F
JONESBORO      CLEAR     54  49  83 S7        30.17S
6HR MIN TEMP:  53; 6HR MAX TEMP:  66;

WALNUT RIDGE   CLEAR     53  47  79 S6        30.16S
6HR MIN TEMP:  52; 6HR MAX TEMP:  63;

BLYTHEVILLE    CLEAR     55  49  80 S7        30.19S
6HR MIN TEMP:  55; 6HR MAX TEMP:  65;

$$

ARZ022-023-033-042-044-190700-
CENTRAL ARKANSAS

CITY           SKY/WX    TMP DP  RH WIND       PRES   REMARKS
LITTLE ROCK    CLEAR     53  50  89 SE6       30.16F
6HR MIN TEMP:  52; 6HR MAX TEMP:  67;

N LITTLE ROCK    N/A     62  49  64 S6        30.17F
6HR MIN TEMP:  61; 6HR MAX TEMP:  70;

JACKSONVILLE   CLEAR     47  46  95 CALM      30.15F
6HR MIN TEMP:  47; 6HR MAX TEMP:  64;

HOT SPRINGS    PTCLDY    57  51  80 E3        30.16F
6HR MIN TEMP:  56; 6HR MAX TEMP:  73;

RUSSELLVILLE   CLEAR     54  51  90 CALM      30.14S
6HR MIN TEMP:  53; 6HR MAX TEMP:  69;

CLINTON        FAIR      48  46  93 CALM      30.17S
$$

ARZ036-190700-
EAST ARKANSAS

CITY           SKY/WX    TMP DP  RH WIND       PRES   REMARKS
WEST MEMPHIS   CLEAR     51  50  96 CALM      30.18S
6HR MIN TEMP:  51; 6HR MAX TEMP:  61;

$$

ARZ050-053-066-070-073-190700-
SOUTHWEST ARKANSAS

CITY           SKY/WX    TMP DP  RH WIND       PRES   REMARKS
CAMDEN         FOG       48  46  93 CALM      30.16S VSB 1/2
TEXARKANA      CLOUDY    60  54  80 SE6       30.15S
6HR MIN TEMP:  59; 6HR MAX TEMP:  71;

EL DORADO      CLEAR     48  48 100 CALM      30.16F
6HR MIN TEMP:  48; 6HR MAX TEMP:  64;

DE QUEEN       CLOUDY    49  49 100 CALM      30.13F
6HR MIN TEMP:  48; 6HR MAX TEMP:  65;

$$

ARZ056-057-069-190700-
SOUTHEAST ARKANSAS

CITY           SKY/WX    TMP DP  RH WIND       PRES   REMARKS
PINE BLUFF     CLEAR     47  43  86 SW3       30.17F
6HR MIN TEMP:  46; 6HR MAX TEMP:  67;

STUTTGART      CLEAR     56  50  80 SE3       30.17S
6HR MIN TEMP:  54; 6HR MAX TEMP:  65;

MONTICELLO     CLEAR     58  48  69 S5        30.18F
6HR MIN TEMP:  54; 6HR MAX TEMP:  64;


$$






USA.gov is the U.S. government's official web portal to all federal, state and local government web resources and services.